Waarnemingen

Advertentie
Mijn weer
Schaffen, België (6465): temperatuur & dauwpunt: 09.10.2019 21:00:00 - 15.10.2019 21:00:00 (CEST)Schaffen, België (6465): windsnelheid & windstoten: 09.10.2019 21:00:00 - 15.10.2019 21:00:00 (CEST)Schaffen, België (6465): windrichting: 09.10.2019 21:00:00 - 15.10.2019 21:00:00 (CEST)Schaffen, België (6465): luchtdruk: 09.10.2019 21:00:00 - 15.10.2019 21:00:00 (CEST)Schaffen, België (6465): zicht: 09.10.2019 21:00:00 - 15.10.2019 21:00:00 (CEST)
Datum & Tijd tt [°C] td [°C] ff [km/u] ff [kn] fx [km/u] fx [kn] dd ppp [hPa] vv [km]
15.10.2019 21:00:00 13,6 11,5 7 4 18 10 ZZW 1008,6 20
15.10.2019 20:00:00 13,7 12,6 7 4 - - ZZW 1008,0 20
15.10.2019 19:00:00 13,8 12,8 7 4 14 8 Z 1007,3 20
15.10.2019 18:00:00 14,0 13,0 7 4 14 8 Z 1006,7 20
15.10.2019 17:00:00 14,3 13,3 4 2 - - N 1006,8 20
15.10.2019 16:00:00 14,6 13,1 7 4 18 10 ZZW 1007,0 14
15.10.2019 15:00:00 15,1 12,6 11 6 14 8 ZZW 1007,0 20
15.10.2019 14:00:00 15,3 13,0 7 4 - - Z 1007,1 20
15.10.2019 13:00:00 15,0 13,4 7 4 25 14 ZZW 1007,1 20
15.10.2019 12:00:00 15,1 12,9 8 4 25 14 ZW 1007,1 10
15.10.2019 11:00:00 15,1 14,1 7 4 - - N 1006,5 20
15.10.2019 10:00:00 14,5 13,9 7 4 14 8 Z 1006,7 15
15.10.2019 09:00:00 14,2 13,6 4 2 11 6 N 1006,5 14
15.10.2019 08:00:00 14,1 13,0 7 4 - - ZZO 1006,2 20
15.10.2019 07:00:00 15,1 12,3 7 4 11 6 ZZW 1005,7 20
15.10.2019 06:00:00 15,9 12,0 4 2 18 10 N 1005,3 20
15.10.2019 05:00:00 16,6 11,7 7 4 - - ZZW 1005,5 20
15.10.2019 04:00:00 17,2 11,9 11 6 22 12 ZW 1005,5 20
15.10.2019 03:00:00 16,8 13,5 11 6 18 10 Z 1005,7 20
15.10.2019 02:00:00 16,7 13,8 11 6 - - Z 1005,8 20
15.10.2019 01:00:00 17,0 13,9 11 6 14 8 Z 1005,7 20
15.10.2019 00:00:00 17,6 14,1 11 6 14 8 Z 1005,6 20
14.10.2019 23:00:00 17,6 14,4 7 4 - - ZZO 1005,6 20
14.10.2019 22:00:00 18,0 14,5 7 4 11 6 N 1005,7 4,6
14.10.2019 21:00:00 18,5 14,4 11 6 18 10 Z 1006,2 20
14.10.2019 20:00:00 19,1 14,7 11 6 - - ZZO 1006,2 20
14.10.2019 19:00:00 19,7 15,0 11 6 18 10 ZO 1006,6 20
14.10.2019 18:00:00 20,9 15,1 14 8 25 14 ZZO 1006,2 20
14.10.2019 17:00:00 22,2 15,2 11 6 - - ZZO 1007,0 20
14.10.2019 16:00:00 22,3 15,1 11 6 25 14 ZO 1007,5 20
14.10.2019 15:00:00 21,2 15,3 11 6 22 12 ZO 1008,3 20
14.10.2019 14:00:00 20,2 14,8 14 8 - - ZO 1009,3 20
14.10.2019 13:00:00 19,2 14,1 14 8 22 12 ZO 1010,3 20
14.10.2019 12:00:00 18,2 14,1 14 8 25 14 OZO 1011,2 20
14.10.2019 11:00:00 15,5 12,9 7 4 - - O 1012,0 20
14.10.2019 10:00:00 14,0 12,7 7 4 11 6 O 1012,5 12
14.10.2019 09:00:00 12,3 12,0 4 2 7 4 N 1012,7 10
14.10.2019 08:00:00 11,1 11,0 2 1 - - - 1013,0 0,6
14.10.2019 07:00:00 11,8 11,7 4 2 7 4 N 1013,2 0,4
14.10.2019 06:00:00 12,2 12,1 4 2 4 2 - 1013,5 7
14.10.2019 05:00:00 12,7 12,2 4 2 - - N 1013,6 19
14.10.2019 04:00:00 14,3 12,5 4 2 11 6 N 1013,8 20
14.10.2019 03:00:00 14,5 12,8 5 3 11 6 Z 1014,1 10
14.10.2019 02:00:00 15,1 12,6 4 2 - - N 1013,5 20
14.10.2019 01:00:00 15,6 12,2 7 4 18 10 ZZW 1013,1 20
14.10.2019 00:00:00 16,0 12,3 11 6 22 12 WZW 1012,7 20
13.10.2019 23:00:00 16,0 12,6 11 6 - - WZW 1012,1 20
13.10.2019 22:00:00 17,0 13,9 14 8 36 19 W 1011,2 20
13.10.2019 21:00:00 20,3 15,2 14 8 32 18 ZW 1009,5 20
13.10.2019 20:00:00 20,8 15,5 7 4 - - ZZW 1008,3 20
13.10.2019 19:00:00 21,6 15,2 14 8 25 14 Z 1007,6 20
13.10.2019 18:00:00 22,7 14,9 14 8 29 16 ZZW 1007,2 20
13.10.2019 17:00:00 23,1 15,2 14 8 - - ZZW 1007,2 20
13.10.2019 16:00:00 23,7 14,3 22 12 47 25 ZZW 1007,0 20
13.10.2019 15:00:00 24,1 14,7 22 12 47 25 ZZW 1006,3 20
13.10.2019 14:00:00 22,8 14,7 22 12 - - Z 1006,5 20
13.10.2019 13:00:00 21,9 15,1 18 10 36 19 Z 1007,5 20
13.10.2019 12:00:00 20,0 14,8 18 10 36 19 Z 1008,2 20
13.10.2019 11:00:00 19,2 15,2 18 10 - - Z 1008,3 20
13.10.2019 10:00:00 18,2 15,8 14 8 25 14 Z 1008,2 20
13.10.2019 09:00:00 15,8 15,1 11 6 18 10 ZZO 1008,2 19
13.10.2019 08:00:00 14,2 14,0 5 3 - - ZZO 1008,2 3,3
13.10.2019 07:00:00 14,6 14,2 7 4 14 8 Z 1008,2 14
13.10.2019 06:00:00 14,7 14,1 7 4 14 8 Z 1008,7 16
13.10.2019 05:00:00 14,6 14,0 4 2 - - N 1009,0 13
13.10.2019 04:00:00 15,0 14,2 11 6 14 8 Z 1009,2 20
13.10.2019 03:00:00 15,1 14,1 7 4 14 8 Z 1009,7 20
13.10.2019 02:00:00 15,2 14,0 11 6 - - Z 1010,0 20
13.10.2019 01:00:00 14,3 13,3 11 6 14 8 Z 1010,2 19
13.10.2019 00:00:00 14,6 13,1 7 4 22 12 Z 1010,7 20
12.10.2019 23:00:00 15,1 13,1 11 6 - - Z 1010,5 20
12.10.2019 22:00:00 15,1 13,1 11 6 14 8 Z 1010,7 20
12.10.2019 21:00:00 15,8 13,4 9 5 18 10 Z 1010,5 10
12.10.2019 20:00:00 15,7 13,2 7 4 - - Z 1010,1 20
12.10.2019 19:00:00 16,7 13,1 7 4 22 12 ZZW 1009,8 20
12.10.2019 18:00:00 18,0 12,9 7 4 25 14 ZZW 1009,7 20
12.10.2019 17:00:00 18,3 13,0 11 6 - - ZZW 1010,2 20
12.10.2019 16:00:00 18,1 12,3 11 6 36 19 ZZW 1010,7 20
12.10.2019 15:00:00 18,3 11,7 18 10 40 21 ZZW 1010,8 20
12.10.2019 14:00:00 19,4 12,3 18 10 - - ZZW 1011,0 20
12.10.2019 13:00:00 18,5 12,0 18 10 36 19 ZZW 1011,0 20
12.10.2019 12:00:00 17,3 12,0 18 10 36 19 ZZW 1010,7 20
12.10.2019 11:00:00 16,1 11,7 22 12 - - ZZW 1010,7 20
12.10.2019 10:00:00 14,9 11,4 18 10 32 18 ZZW 1010,3 20
12.10.2019 09:00:00 13,8 11,1 14 8 25 14 ZZW 1009,7 20
12.10.2019 08:00:00 13,5 10,9 11 6 - - ZZW 1009,2 20
12.10.2019 07:00:00 13,6 11,0 14 8 29 16 ZZW 1009,2 20
12.10.2019 06:00:00 14,0 10,9 14 8 25 14 ZZW 1009,1 20
12.10.2019 05:00:00 14,0 10,8 14 8 - - ZZW 1009,1 20
12.10.2019 04:00:00 14,2 10,8 11 6 22 12 ZZW 1009,0 20
12.10.2019 03:00:00 15,0 11,3 11 6 25 14 ZZW 1009,3 20
12.10.2019 02:00:00 15,4 11,6 14 8 - - Z 1009,2 20
12.10.2019 01:00:00 15,7 11,8 14 8 25 14 Z 1009,2 20
12.10.2019 00:00:00 16,8 11,9 18 10 29 16 ZZW 1010,2 20
11.10.2019 23:00:00 17,0 11,4 14 8 - - ZZW 1010,3 20
11.10.2019 22:00:00 16,5 11,4 18 10 36 19 ZZW 1010,2 20
11.10.2019 21:00:00 16,3 11,6 18 10 36 19 ZZW 1010,2 20
11.10.2019 20:00:00 16,2 11,6 18 10 - - ZZW 1010,8 20
11.10.2019 19:00:00 15,8 11,5 18 10 40 21 ZZW 1010,8 20
11.10.2019 18:00:00 15,9 11,3 22 12 43 23 ZZW 1010,8 20
11.10.2019 17:00:00 16,2 10,8 18 10 - - ZZW 1011,3 20
11.10.2019 16:00:00 16,2 11,4 18 10 43 23 ZZW 1011,6 20
11.10.2019 15:00:00 15,6 11,3 18 10 43 23 ZZW 1012,2 20
11.10.2019 14:00:00 15,3 10,9 21 11 - - ZZW 1013,0 10
11.10.2019 13:00:00 15,0 11,2 22 12 43 23 ZZW 1013,3 20
11.10.2019 12:00:00 14,1 11,0 24 13 47 25 ZZW 1014,0 10
11.10.2019 11:00:00 13,6 10,8 18 10 - - ZZW 1014,2 20
11.10.2019 10:00:00 13,5 10,7 14 8 32 18 ZW 1014,3 20
11.10.2019 09:00:00 13,4 10,2 14 8 25 14 ZZW 1014,0 20
11.10.2019 08:00:00 13,0 9,4 7 4 - - ZW 1014,0 20
11.10.2019 07:00:00 12,8 9,0 14 8 25 14 ZZW 1014,2 20
11.10.2019 06:00:00 12,6 8,6 14 8 29 16 ZZW 1014,7 20
11.10.2019 05:00:00 12,1 8,2 18 10 - - Z 1014,6 20
11.10.2019 04:00:00 12,1 7,8 14 8 29 16 ZZW 1015,1 20
11.10.2019 03:00:00 11,9 7,8 14 8 32 18 Z 1015,2 20
11.10.2019 02:00:00 12,1 7,9 14 8 - - ZZW 1015,7 20
11.10.2019 01:00:00 12,5 7,7 14 8 29 16 ZZW 1015,6 20
11.10.2019 00:00:00 13,1 8,1 11 6 32 18 ZZW 1016,2 20
10.10.2019 23:00:00 13,8 8,5 14 8 - - ZZW 1016,1 20
10.10.2019 22:00:00 13,5 9,3 14 8 25 14 ZZW 1016,2 20
10.10.2019 21:00:00 13,6 8,7 7 4 22 12 ZZW 1016,1 20
10.10.2019 20:00:00 14,0 8,6 11 6 - - ZW 1016,1 20
10.10.2019 19:00:00 14,1 8,9 7 4 18 10 ZZW 1015,6 20
10.10.2019 18:00:00 14,9 9,2 7 4 36 19 ZW 1015,3 20
10.10.2019 17:00:00 16,2 8,3 18 10 - - WZW 1015,2 20
10.10.2019 16:00:00 16,0 8,4 18 10 40 21 WZW 1015,0 20
10.10.2019 15:00:00 14,9 6,1 25 14 40 21 W 1014,8 20
10.10.2019 14:00:00 14,8 6,9 18 10 - - W 1014,7 20
10.10.2019 13:00:00 14,7 7,5 18 10 40 21 WZW 1014,5 20
10.10.2019 12:00:00 13,6 8,0 18 10 36 19 WZW 1014,1 20
10.10.2019 11:00:00 12,2 8,7 14 8 - - ZW 1013,7 20
10.10.2019 10:00:00 - - - - - - - - -
10.10.2019 09:00:00 9,8 8,0 11 6 25 14 ZW 1011,8 20
10.10.2019 08:00:00 9,3 8,0 11 6 - - ZW 1011,0 20
10.10.2019 07:00:00 9,6 8,0 11 6 22 12 ZW 1010,2 20
10.10.2019 06:00:00 9,6 8,3 11 6 18 10 ZW 1009,5 20
10.10.2019 05:00:00 9,7 8,0 7 4 - - ZW 1008,8 20
10.10.2019 04:00:00 10,0 7,7 7 4 22 12 ZW 1008,2 20
10.10.2019 03:00:00 10,2 7,4 11 6 32 18 ZZW 1008,2 20
10.10.2019 02:00:00 10,8 7,8 11 6 - - ZW 1008,1 20
10.10.2019 01:00:00 11,0 8,0 18 10 36 19 ZZW 1007,8 20
10.10.2019 00:00:00 10,4 7,5 11 6 29 16 ZW 1008,2 20
09.10.2019 23:00:00 10,5 7,6 11 6 - - ZW 1008,1 20
09.10.2019 22:00:00 10,8 8,1 14 8 25 14 ZW 1008,2 20
09.10.2019 21:00:00 11,3 8,2 14 8 32 18 ZW 1008,1 20

tt = temperatuur
td = dauwpunt
ff = windsnelheid
fx = windstoten
dd = windrichting
ppp = luchtdruk
vv = zicht

Weerstations in de omgeving